Location: Boiro
(42.6475°N, 8.8834°W)
Time: 03:34:25
(UTC+01:00)

Vanguard 1 Rocket - Pass Details

Date: 13 December 2021
Orbit: 651 x 4224 km, 34.3° (Epoch: 21 January)

Event Time Altitude Azimuth Distance (km) Brightness Sun altitude
Rises 01:16:44 0° 222° (SW) 3,286 - -70.3°
Reaches altitude 10° 01:19:02 10° 210° (SSW) 2,570 - -70.4°
Maximum altitude 01:24:18 31° 149° (SSE) 2,005 - -70.5°
Drops below altitude 10° 01:32:51 10° 93° (E) 4,271 - -70.5°
Exits shadow 01:37:15 - 86° (E) 5,691 11.5 -70.4°
Sets 01:37:58 0° 85° (E) 5,914 11.6 -70.4°
